Flag for Norway Weather past 2 weeks in Fevik, Norway

Now
45 °F

Cool.


Feels Like: 40 °F
Forecast: 38 / 51 °F
Wind: 9 mph from South

Location: Torungen Fyr

Current Time: Apr 25, 2015 at 11:25:46 AM

Latest Report: Apr 25, 2015 at 10:00 AM


Visibility: N/A

Pressure: 29.47 "Hg

Humidity: 98%

Dew point: 44 °F

Location of FevikLocation

Historic Weather in Fevik — Graph

°F

Fevik temperature yesterday

Maximum temperature yesterday: 47 °F (at 11:00 AM)
Minimum temperature yesterday: 42 °F (at 6:00 AM)
Average temperature yesterday: 45 °F

Past Weeks' High & Low Weather Summary

 TemperatureHumidityPressure
High69 °F (Apr 20, 5:00 PM)99% (Apr 10, 10:00 PM)30.38 "Hg (Apr 10, 10:00 PM)
Low38 °F (Apr 13, 7:00 AM)17% (Apr 20, 5:00 PM)29.47 "Hg (Apr 25, 10:00 AM)
Average47 °F69%29.99 "Hg
* Reported Apr 10 10:00 AM — Apr 25 10:00 AM, Fevik, Weather by CustomWeather, © 2015

Note: Actual official high and low records may vary slightly from our data, if they occured in-between our weather recording intervals... More about our weather records

Advertising

Fevik weather history for previous 24 hours

 ConditionsComfort  
Time TempWeatherWind HumidityBarometerVisibility
10:00 AM
Sat, Apr 25
45 °FCool.9 mph98%29.47 "HgN/A
9:00 AM45 °FQuite cool.9 mph98%29.50 "HgN/A
8:00 AM44 °FQuite cool.8 mph97%29.50 "HgN/A
7:00 AM44 °FQuite cool.7 mph97%29.53 "HgN/A
6:00 AM44 °FQuite cool.6 mph97%29.55 "HgN/A
5:00 AM44 °FQuite cool.7 mph97%29.57 "HgN/A
4:00 AM44 °FQuite cool.8 mph98%29.58 "HgN/A
3:00 AM44 °FQuite cool.8 mph98%29.58 "HgN/A
1:00 AM44 °FQuite cool.7 mph98%29.62 "HgN/A
12:00 AM44 °FQuite cool.8 mph97%29.63 "HgN/A
10:00 PM
Fri, Apr 24
44 °FQuite cool.9 mph94%29.66 "HgN/A
9:00 PM44 °FQuite cool.13 mph96%29.67 "HgN/A
8:00 PM45 °FCool.13 mph96%29.67 "HgN/A
7:00 PM46 °FCool.12 mph91%29.67 "HgN/A
6:00 PM46 °FCool.14 mph86%29.68 "HgN/A
5:00 PM46 °FCool.15 mph82%29.68 "HgN/A
4:00 PM47 °FCool.17 mph81%29.69 "HgN/A
3:00 PM47 °FCool.16 mph79%29.70 "HgN/A
2:00 PM47 °FCool.16 mph79%29.71 "HgN/A
1:00 PM46 °FCool.15 mph86%29.72 "HgN/A
12:00 PM46 °FCool.14 mph87%29.74 "HgN/A
11:00 AM47 °FCool.8 mph67%29.75 "HgN/A
Weather by CustomWeather, © 2015

See weather overviewHow to use our weather pages